Weather in Furstenfeld

Austria     47°02′52″N   16°04′48″E
temp.,
°C
wind,
m/s
gust,
m/s
humid.,
%
clouds,
%
prec.,
mm/h
press.,
hPa
HPBL,
m
16 october, sat
sat1623:00+6sw117035 0.0 102010
02:00+5wsw1177100 0.0 102010
05:00+5wnw118999 0.0 102014
08:00+8wnw1280100 0.0 102049
11:00+13ne136375 0.0 1021720
14:00+14ene126699 0.4 1020607
17:00+13se116772 0.1 101931
20:00+10ese1169100 0.2 102110
17 october, sun
sun1723:00+9sw006976 0.0 102210
02:00+7wnw11755 0.0 102211
05:00+5w11825 0.0 102210
08:00+5w11825 0.0 102310
11:00+13sw22545 0.0 1022548
14:00+15ssw22452 0.0 10201141
17:00+13s23565 0.0 102083
20:00+8s11755 0.0 102110
18 october, mon
mon1823:00+7w118341 0.0 102210
02:00+6w118774 0.0 102310
05:00+5w119090 0.0 102310
08:00+6nw1185100 0.0 102413
11:00+13ene1259100 0.0 1024412
14:00+16se11505 0.0 1023908
17:00+14se226019 0.0 102357
20:00+9ssw11795 0.0 102610
19 october, tue
tue1923:00+8wnw11861 0.0 102710
02:00+7w119016 0.0 102810
05:00+6w119251 0.0 102710
08:00+7wsw119169 0.0 102813
11:00+13ssw236384 0.0 1027464
14:00+16ssw234915 0.0 1026873
17:00+14s2260100 0.0 102430
20:00+10s117492 0.0 102510
20 october, wed
wed2023:00+8sw118559 0.0 102510
02:00+8sw118698 0.0 102510
05:00+10ssw1178100 0.0 102336
08:00+8ssw11825 0.0 102230
11:00+15ssw235733 0.0 1020447
14:00+18s344798 0.0 1017779
17:00+16s236157 0.0 1013102
20:00+12ssw3880100 0.0 1012176